KC9DNQ-3 Weather Reports


time (UTC)temp
C
wind
direction
speed
KPH
gust
KPH
rain 1hr
cm
rain 24hr
cm
rain mn
cm
humidity
%
barometer
mb
20260504050507 12 208 1.6 9.7 0.00 0.03 0.00 69 1005.3
20260504050006 13 192 3.2 8.0 0.00 0.03 0.00 69 1005.3
20260504045507 13 192 1.6 8.0 0.00 0.03 0.03 69 1005.3
20260504045007 13 192 3.2 11.3 0.00 0.03 0.03 69 1005.4
20260504044507 13 190 3.2 11.3 0.00 0.03 0.03 69 1005.3
20260504044007 13 189 3.2 9.7 0.00 0.03 0.03 69 1005.4
20260504043507 13 186 3.2 9.7 0.00 0.03 0.03 69 1005.4
20260504043008 13 185 4.8 9.7 0.00 0.03 0.03 68 1005.4
20260504042507 13 188 4.8 9.7 0.00 0.03 0.03 69 1005.4
20260504042008 13 188 3.2 8.0 0.00 0.03 0.03 69 1005.5
20260504041507 13 188 3.2 9.7 0.00 0.03 0.03 69 1005.5
20260504041007 13 194 3.2 9.7 0.00 0.03 0.03 68 1005.5
20260504040507 13 193 3.2 9.7 0.00 0.03 0.03 68 1005.5
20260504040008 13 173 1.6 9.7 0.00 0.03 0.03 68 1005.6
20260504035507 13 185 3.2 9.7 0.00 0.03 0.03 68 1005.6
20260504035007 13 182 3.2 8.0 0.00 0.03 0.03 68 1005.6
20260504034506 13 181 3.2 4.8 0.00 0.03 0.03 68 1005.8
20260504034008 13 152 1.6 8.0 0.00 0.03 0.03 68 1005.8
20260504033507 13 151 3.2 11.3 0.00 0.03 0.03 67 1005.8
20260504033007 13 209 3.2 11.3 0.00 0.03 0.03 67 1005.9
20260504032507 13 174 3.2 11.3 0.00 0.03 0.03 67 1005.9
20260504032006 13 194 0.0 8.0 0.00 0.03 0.03 66 1005.9
20260504031507 14 194 1.6 8.0 0.00 0.03 0.03 66 1005.9
20260504031006 14 182 3.2 8.0 0.00 0.03 0.03 65 1005.9
20260504030507 14 178 1.6 4.8 0.00 0.03 0.03 64 1005.9
20260504030007 15 178 1.6 11.3 0.00 0.03 0.03 63 1005.9
20260504025507 15 178 3.2 11.3 0.00 0.03 0.03 63 1005.8
20260504025006 15 189 3.2 9.7 0.00 0.03 0.03 63 1005.8
20260504024506 15 170 3.2 9.7 0.00 0.03 0.03 63 1005.9
20260504024007 15 157 1.6 9.7 0.00 0.03 0.03 62 1005.9
20260504023507 15 160 3.2 9.7 0.00 0.03 0.03 62 1005.8
20260504023007 15 175 3.2 4.8 0.00 0.03 0.03 62 1005.8
20260504022507 15 175 1.6 8.0 0.00 0.03 0.03 62 1005.8
20260504022006 15 172 3.2 8.0 0.00 0.03 0.03 61 1005.7
20260504021507 15 183 1.6 4.8 0.00 0.03 0.03 61 1005.7
20260504021006 15 183 0.0 4.8 0.00 0.03 0.03 60 1005.7
20260504020508 15 183 1.6 4.8 0.00 0.03 0.03 60 1005.7
20260504020007 15 181 3.2 4.8 0.00 0.03 0.03 59 1005.6
20260504015507 15 182 1.6 4.8 0.00 0.03 0.03 60 1005.6
20260504015007 15 182 1.6 4.8 0.00 0.03 0.03 59 1005.6
20260504014507 15 182 1.6 4.8 0.00 0.03 0.03 59 1005.6
20260504014007 16 182 1.6 4.8 0.00 0.03 0.03 58 1005.6
20260504013508 16 180 1.6 4.8 0.00 0.03 0.03 57 1005.6
20260504013007 16 259 0.0 4.8 0.00 0.03 0.03 58 1005.6
20260504012507 16 260 1.6 4.8 0.00 0.03 0.03 56 1005.6
20260504012006 16 262 1.6 4.8 0.00 0.03 0.03 55 1005.6
20260504011507 17 262 1.6 4.8 0.00 0.03 0.03 54 1005.5
20260504011007 17 266 1.6 8.0 0.00 0.03 0.03 53 1005.5
20260504010507 17 266 1.6 12.9 0.00 0.03 0.03 53 1005.5
20260504010007 17 165 4.8 19.3 0.00 0.03 0.03 52 1005.4
20260504005507 17 207 3.2 19.3 0.00 0.03 0.03 51 1005.3
20260504005006 18 215 3.2 19.3 0.00 0.03 0.03 51 1005.3
20260504004507 18 214 4.8 14.5 0.00 0.03 0.03 51 1005.3
20260504004007 18 197 6.4 14.5 0.00 0.03 0.03 50 1005.3
20260504003506 18 219 4.8 14.5 0.00 0.03 0.03 49 1005.4
20260504003007 18 210 4.8 14.5 0.00 0.03 0.03 49 1005.4
20260504002507 18 208 3.2 19.3 0.00 0.03 0.03 48 1005.3
20260504002007 19 222 4.8 19.3 0.00 0.03 0.03 48 1005.4
20260504001506 19 212 6.4 16.1 0.00 0.03 0.03 46 1005.5
20260504001008 19 224 6.4 16.1 0.00 0.03 0.03 46 1005.5
20260504000507 20 219 8.0 22.5 0.00 0.03 0.03 45 1005.5
20260504000007 20 238 8.0 24.1 0.00 0.03 0.03 46 1005.5
20260503235507 20 247 12.9 24.1 0.00 0.03 0.03 45 1005.7
20260503235007 20 230 8.0 19.3 0.00 0.03 0.03 45 1005.6
20260503234507 20 258 9.7 29.0 0.00 0.03 0.03 45 1005.5
20260503234008 20 206 11.3 29.0 0.00 0.03 0.03 44 1005.5
20260503233507 20 222 9.7 22.5 0.00 0.03 0.03 44 1005.5
20260503233007 20 210 6.4 24.1 0.00 0.03 0.03 44 1005.5
20260503232507 20 225 12.9 24.1 0.00 0.03 0.03 43 1005.5
20260503232006 20 223 8.0 22.5 0.00 0.03 0.03 43 1005.6
20260503231507 20 221 9.7 25.7 0.00 0.03 0.03 43 1005.7
20260503231007 20 194 9.7 25.7 0.00 0.03 0.03 44 1005.6
20260503230507 20 188 9.7 22.5 0.00 0.03 0.03 42 1006.0
20260503230007 20 231 11.3 22.5 0.00 0.03 0.03 43 1006.0
20260503225507 20 229 8.0 20.9 0.00 0.03 0.03 43 1006.0
20260503225007 20 243 8.0 29.0 0.00 0.03 0.03 42 1006.0
20260503224507 21 251 4.8 29.0 0.00 0.03 0.03 42 1006.0
20260503224007 21 247 11.3 29.0 0.00 0.03 0.03 43 1006.0
20260503223506 21 227 11.3 25.7 0.00 0.03 0.03 41 1005.9
20260503223006 21 248 9.7 29.0 0.00 0.03 0.03 42 1006.0
20260503222507 20 201 12.9 29.0 0.00 0.03 0.03 43 1006.0
20260503222007 20 236 11.3 32.2 0.00 0.03 0.03 42 1006.0
20260503221507 20 245 9.7 32.2 0.00 0.03 0.03 42 1006.0
20260503221006 20 222 8.0 24.1 0.00 0.03 0.03 42 1006.0
20260503220507 20 238 4.8 29.0 0.00 0.03 0.03 43 1006.0
20260503220008 20 244 9.7 29.0 0.00 0.03 0.03 42 1006.0
20260503215507 19 223 12.9 22.5 0.00 0.03 0.03 43 1005.9
20260503215008 19 202 9.7 29.0 0.00 0.03 0.03 42 1006.2
20260503214506 19 188 6.4 29.0 0.00 0.03 0.03 42 1006.1
20260503214007 19 245 11.3 32.2 0.00 0.03 0.03 43 1006.2
20260503213507 19 197 9.7 32.2 0.00 0.03 0.03 42 1006.2
20260503213007 19 232 11.3 32.2 0.00 0.03 0.03 41 1006.2
20260503212508 19 200 9.7 25.7 0.00 0.03 0.03 42 1006.4
20260503212007 19 185 6.4 25.7 0.00 0.03 0.03 42 1006.4
20260503211507 19 203 3.2 25.7 0.00 0.03 0.03 45 1006.5
20260503211007 19 173 9.7 32.2 0.00 0.03 0.03 43 1006.7
20260503210506 19 206 12.9 32.2 0.00 0.03 0.03 42 1006.7
20260503210006 19 220 8.0 27.4 0.00 0.03 0.03 43 1006.8
20260503205508 19 182 8.0 27.4 0.00 0.03 0.03 43 1006.8
20260503205007 18 194 12.9 32.2 0.00 0.03 0.03 44 1007.2
20260503204507 18 195 12.9 32.2 0.00 0.03 0.03 43 1007.2
20260503204007 18 194 12.9 25.7 0.00 0.03 0.03 42 1007.2
20260503203508 18 208 11.3 27.4 0.00 0.03 0.03 43 1007.5
20260503203006 18 205 14.5 27.4 0.00 0.03 0.03 42 1007.5
20260503202507 18 185 11.3 29.0 0.00 0.03 0.03 43 1007.5
20260503202007 19 185 14.5 32.2 0.00 0.03 0.03 40 1007.6
20260503201506 20 185 9.7 32.2 0.00 0.03 0.03 40 1007.7
20260503201007 20 200 9.7 35.4 0.00 0.03 0.03 42 1007.8
20260503200506 19 200 16.1 35.4 0.00 0.03 0.03 39 1007.8
20260503200007 19 185 9.7 33.8 0.00 0.03 0.03 41 1007.9
20260503195506 19 194 9.7 33.8 0.00 0.03 0.03 41 1007.9
20260503195006 19 197 16.1 33.8 0.00 0.03 0.03 41 1008.2
20260503194506 18 180 6.4 33.8 0.00 0.03 0.03 43 1008.2
20260503194007 18 180 12.9 33.8 0.00 0.03 0.03 41 1008.2
20260503193507 18 184 11.3 33.8 0.00 0.03 0.03 40 1008.2
20260503193008 18 186 9.7 33.8 0.00 0.03 0.03 40 1008.2
20260503192506 18 193 14.5 33.8 0.00 0.03 0.03 41 1008.2
20260503192007 18 183 12.9 27.4 0.00 0.03 0.03 38 1008.3
20260503191507 18 167 11.3 35.4 0.00 0.03 0.03 40 1008.2
20260503191007 18 215 12.9 35.4 0.00 0.03 0.03 43 1008.4
20260503190507 18 184 12.9 32.2 0.00 0.03 0.03 43 1008.4
20260503190008 18 185 19.3 41.8 0.00 0.03 0.03 41 1008.6
20260503185507 18 177 12.9 41.8 0.00 0.03 0.03 43 1008.9
20260503185006 18 160 16.1 37.0 0.00 0.03 0.03 43 1008.9
20260503184506 17 191 11.3 33.8 0.00 0.03 0.03 48 1008.9
20260503184008 17 192 14.5 27.4 0.00 0.03 0.03 47 1009.0
20260503183507 17 179 8.0 22.5 0.00 0.03 0.03 50 1009.3
20260503183007 17 161 9.7 33.8 0.00 0.03 0.03 50 1009.3
20260503182507 16 172 11.3 33.8 0.00 0.03 0.03 50 1009.5
20260503182006 16 211 8.0 27.4 0.00 0.03 0.03 53 1009.5
20260503181507 16 162 9.7 27.4 0.00 0.03 0.03 55 1009.7
20260503181006 15 174 8.0 24.1 0.00 0.03 0.03 54 1010.2
20260503180508 15 186 8.0 19.3 0.00 0.03 0.03 59 1010.2
20260503180006 15 188 4.8 12.9 0.00 0.03 0.03 61 1010.2
20260503175506 14 157 4.8 12.9 0.00 0.03 0.03 60 1010.7
20260503175006 13 160 4.8 12.9 0.00 0.03 0.03 60 1010.7
20260503174506 13 178 4.8 12.9 0.00 0.03 0.03 60 1011.0
20260503174007 13 176 4.8 11.3 0.00 0.03 0.03 61 1011.2
20260503173507 13 173 1.6 8.0 0.00 0.03 0.03 63 1011.4
20260503173008 13 177 1.6 8.0 0.00 0.03 0.03 65 1011.4
20260503172507 13 174 1.6 4.8 0.00 0.03 0.03 68 1011.5
20260503172008 12 174 1.6 4.8 0.00 0.03 0.03 69 1011.9
20260503171507 12 177 3.2 4.8 0.00 0.03 0.03 70 1011.9
20260503171008 11 173 1.6 4.8 0.00 0.03 0.03 69 1012.2
20260503170506 11 173 1.6 4.8 0.03 0.03 0.03 71 1012.3
20260503151007 11 183 3.2 8.0 0.00 0.00 0.00 68 1014.0
20260503150506 11 224 3.2 14.5 0.00 0.00 0.00 70 1013.8
20260503131006 11 179 8.0 25.7 0.00 0.00 0.00 61 1014.2
20260503130507 10 197 9.7 22.5 0.00 0.00 0.00 62 1014.2
20260503110506 8 184 8.0 20.9 0.00 0.00 0.00 62 1014.0
20260503090507 6 187 3.2 9.7 0.00 0.00 0.00 66 1014.5
20260503081507 6 206 4.8 11.3 0.00 0.00 0.00 64 1014.6
20260503081007 6 187 4.8 11.3 0.00 0.00 0.00 64 1014.6
20260503080506 6 184 4.8 11.3 0.00 0.00 0.00 64 1014.5
20260503072506 6 184 3.2 8.0 0.00 0.00 0.00 67 1014.6
20260503072007 6 184 3.2 8.0 0.00 0.00 0.00 66 1014.7
20260503071506 6 184 3.2 4.8 0.00 0.00 0.00 66 1014.8
20260503071006 6 185 3.2 8.0 0.00 0.00 0.00 66 1014.7
20260503070506 6 185 3.2 8.0 0.00 0.00 0.00 66 1014.8